Stations météo

réclame
Mon MeteoGroup
Orange, France (7579): Température de l'air & dewpoint: 18.09.2019 11:00:00 - 24.09.2019 11:00:00 (CEST)Orange, France (7579): Température de l'air 5cm: 18.09.2019 11:00:00 - 24.09.2019 11:00:00 (CEST)Orange, France (7579): Vitesse du vent & gusts: 18.09.2019 11:00:00 - 24.09.2019 11:00:00 (CEST)Orange, France (7579): Direction du vent: 18.09.2019 11:00:00 - 24.09.2019 11:00:00 (CEST)Orange, France (7579): reduced air pressure: 18.09.2019 11:00:00 - 24.09.2019 11:00:00 (CEST)Orange, France (7579): visibility: 18.09.2019 11:00:00 - 24.09.2019 11:00:00 (CEST)Orange, France (7579): Quantités de précipitations: 18.09.2019 11:00:00 - 24.09.2019 11:00:00 (CEST)
Date & Time tt [°C] td [°C] tt 5cm [°C] ff [km/h] ff [knt] fx [km/h] fx [knt] dd ppp [hPa] vv [km] rr [mm]
24.09.2019 11:00:00 17,7 11,0 18,4 5 3 9 5 ESE 1015,8 58 0,0
24.09.2019 10:00:00 16,1 11,5 16,4 4 2 6 4 ESE 1015,4 51 0,0
24.09.2019 09:00:00 15,1 10,9 12,8 3 2 9 5 W 1015,1 58 0,0
24.09.2019 08:00:00 13,1 10,6 11,2 2 1 9 5 SW 1015,1 59 0,0
24.09.2019 07:00:00 12,8 10,5 11,2 8 4 12 7 E 1014,6 58 0,0
24.09.2019 06:00:00 13,6 10,2 11,9 5 3 13 7 N 1014,7 60 0,0
24.09.2019 05:00:00 14,7 9,9 13,2 5 3 28 15 NE 1015,0 60 0,0
24.09.2019 04:00:00 15,7 10,0 13,2 20 11 27 15 NNW 1015,5 60 0,0
24.09.2019 03:00:00 15,5 9,8 12,9 12 7 27 14 NNW 1016,2 60 0,0
24.09.2019 02:00:00 16,2 9,8 13,3 16 9 23 12 NNW 1016,2 60 0,0
24.09.2019 01:00:00 16,4 9,6 13,9 8 4 23 12 NW 1016,5 60 0,0
24.09.2019 00:00:00 16,6 10,0 12,2 13 7 20 11 NW 1016,8 60 0,0
23.09.2019 23:00:00 17,3 9,7 14,5 10 5 21 11 NW 1017,2 60 0,0
23.09.2019 22:00:00 17,3 9,9 15,2 12 7 27 15 N 1016,7 60 0,0
23.09.2019 21:00:00 19,5 9,4 17,9 19 11 32 17 N 1016,9 60 0,0
23.09.2019 20:00:00 20,0 9,0 18,3 21 11 41 22 N 1016,4 60 0,0
23.09.2019 19:00:00 21,7 8,6 21,9 25 14 43 23 N 1016,0 32 0,0
23.09.2019 18:00:00 23,2 9,2 24,2 27 15 48 26 N 1015,9 20 0,0
23.09.2019 17:00:00 23,8 8,6 24,9 26 14 56 30 N 1015,7 9 0,0
23.09.2019 16:00:00 23,5 9,1 27,4 33 18 53 29 N 1015,8 10 0,0
23.09.2019 15:00:00 23,8 9,8 28,6 33 18 56 30 N 1015,8 11 0,0
23.09.2019 14:00:00 23,2 10,6 25,9 39 21 61 33 NNW 1016,2 16 0,0
23.09.2019 13:00:00 22,6 11,3 25,1 35 19 58 31 NNW 1016,5 20 0,0
23.09.2019 12:00:00 21,4 12,5 23,8 33 18 50 27 NNW 1016,9 24 0,0
23.09.2019 11:00:00 20,2 12,7 20,7 30 16 48 26 N 1017,0 27 0,0
23.09.2019 10:00:00 18,3 12,7 18,3 27 15 42 23 NNW 1017,1 33 0,0
23.09.2019 09:00:00 17,1 13,0 13,8 18 10 29 16 N 1017,2 60 0,0
23.09.2019 08:00:00 14,7 12,6 12,6 10 6 16 9 WNW 1017,1 59 0,0
23.09.2019 07:00:00 14,4 12,6 13,0 12 6 20 11 NW 1016,7 60 0,0
23.09.2019 06:00:00 15,1 12,8 13,8 15 8 27 15 NW 1016,5 60 0,0
23.09.2019 05:00:00 15,2 13,0 14,2 18 10 31 17 NNW 1016,3 60 0,0
23.09.2019 04:00:00 16,1 12,8 14,9 20 11 39 21 NNW 1015,9 60 0,0
23.09.2019 03:00:00 16,4 13,3 14,7 21 11 34 18 NNW 1015,8 60 0,0
23.09.2019 02:00:00 16,5 13,6 15,3 23 12 36 19 NNW 1015,6 60 0,0
23.09.2019 01:00:00 16,6 14,4 15,9 26 14 36 20 NNW 1015,5 39 0,0
23.09.2019 00:00:00 17,0 14,8 16,4 16 9 26 14 NW 1015,7 60 0,0
22.09.2019 23:00:00 17,4 15,2 16,7 13 7 32 18 NW 1014,9 60 0,0
22.09.2019 22:00:00 17,5 15,7 16,8 19 10 38 21 N 1013,6 60 0,0
22.09.2019 21:00:00 19,2 18,2 18,7 15 8 32 17 SSW 1012,4 19 22,7
22.09.2019 20:00:00 20,5 19,7 19,7 6 4 10 5 NE 1011,4 12 0,0
22.09.2019 19:00:00 20,5 19,5 - 5 3 21 11 WSW 1011,6 11 0,8
22.09.2019 18:00:00 23,0 17,7 22,9 3 2 9 5 WSW 1011,2 49 0,0
22.09.2019 17:00:00 23,0 17,5 23,5 5 3 25 14 SW 1011,4 55 0,0
22.09.2019 16:00:00 24,6 16,6 25,4 14 8 31 17 SSE 1011,5 47 0,0
22.09.2019 15:00:00 25,3 16,2 29,2 15 8 28 15 SSE 1011,8 48 0,0
22.09.2019 14:00:00 23,5 16,5 25,2 7 4 16 9 SSE 1012,4 45 0,0
22.09.2019 13:00:00 22,0 16,5 23,3 3 2 9 5 SW 1013,0 43 0,0
22.09.2019 12:00:00 20,5 16,9 19,6 4 2 8 4 SW 1013,3 31 0,2
22.09.2019 11:00:00 20,0 16,8 19,3 4 2 9 5 NNW 1013,4 32 0,0
22.09.2019 10:00:00 18,3 16,5 17,8 0 0 11 6 N 1013,7 17 0,0
22.09.2019 09:00:00 18,1 16,6 16,9 5 3 9 5 WNW 1013,3 23 0,0
22.09.2019 08:00:00 17,7 16,2 16,8 4 2 11 6 WSW 1013,0 25 0,0
22.09.2019 07:00:00 17,8 16,1 16,9 9 5 11 6 NNW 1012,7 15 0,2
22.09.2019 06:00:00 18,5 15,0 17,8 8 4 13 7 NNE 1012,9 37 0,0
22.09.2019 05:00:00 18,2 15,1 16,4 7 4 10 5 NNE 1013,4 36 0,0
22.09.2019 04:00:00 17,9 14,6 16,6 4 2 9 5 N 1013,6 38 0,0
22.09.2019 03:00:00 18,1 14,6 17,1 3 2 8 4 NW 1014,1 36 0,0
22.09.2019 02:00:00 18,6 14,9 17,8 4 2 9 5 NNW 1014,1 38 0,0
22.09.2019 01:00:00 18,8 14,5 17,7 6 4 13 7 N 1013,9 42 0,0
22.09.2019 00:00:00 18,8 14,5 18,2 10 5 16 8 N 1014,0 39 0,0
21.09.2019 23:00:00 18,6 14,1 17,4 11 6 13 7 NNW 1014,1 44 0,0
21.09.2019 22:00:00 19,4 13,8 18,1 7 4 22 12 W 1014,2 44 0,0
21.09.2019 21:00:00 20,4 13,8 19,0 5 3 26 14 SSW 1013,4 54 0,0
21.09.2019 20:00:00 20,8 14,2 17,8 18 10 35 19 SSE 1014,6 49 0,0
21.09.2019 19:00:00 21,3 14,2 20,4 23 12 47 25 SE 1015,3 43 0,0
21.09.2019 18:00:00 21,8 14,2 21,8 22 12 36 19 SE 1014,9 45 0,0
21.09.2019 17:00:00 21,9 14,5 23,0 24 13 36 19 ESE 1015,4 39 0,0
21.09.2019 16:00:00 22,7 14,0 22,9 17 9 37 20 SSE 1016,5 44 0,0
21.09.2019 15:00:00 23,9 13,1 24,6 19 10 53 28 SSE 1016,6 44 0,0
21.09.2019 14:00:00 24,1 12,1 24,7 23 12 37 20 ESE 1017,1 52 0,0
21.09.2019 13:00:00 24,1 11,8 25,6 16 8 33 18 SSE 1018,1 48 0,0
21.09.2019 12:00:00 25,1 10,5 25,5 19 11 31 17 SSE 1018,8 42 0,0
21.09.2019 11:00:00 21,7 12,5 22,8 6 3 9 5 NW 1018,6 47 0,0
21.09.2019 10:00:00 20,1 13,1 19,5 5 3 8 5 WNW 1018,7 52 0,0
21.09.2019 09:00:00 17,8 13,7 16,6 5 3 6 4 NNW 1019,1 19 0,0
21.09.2019 08:00:00 16,6 12,9 14,4 3 2 11 6 NNE 1018,9 38 0,0
21.09.2019 07:00:00 15,3 12,2 13,2 2 1 9 5 NNE 1019,0 39 0,0
21.09.2019 06:00:00 14,5 12,5 9,8 8 4 11 6 NNE 1019,5 33 0,0
21.09.2019 05:00:00 13,4 11,1 9,9 7 4 9 5 NE 1019,7 33 0,0
21.09.2019 04:00:00 15,3 12,4 10,0 6 3 9 5 W 1020,1 34 0,0
21.09.2019 03:00:00 15,8 12,5 10,2 3 1 7 4 W 1020,1 36 0,0
21.09.2019 02:00:00 17,8 12,3 13,0 5 3 10 5 WSW 1020,2 44 0,0
21.09.2019 01:00:00 18,0 11,8 11,6 5 3 10 5 S 1020,1 49 0,0
21.09.2019 00:00:00 19,7 14,9 12,7 4 2 6 3 S 1020,1 35 0,0
20.09.2019 23:00:00 21,0 15,3 17,9 3 2 13 7 S 1020,1 36 0,0
20.09.2019 22:00:00 22,2 15,3 21,5 10 5 22 12 SW 1019,9 41 0,0
20.09.2019 21:00:00 23,2 15,5 22,3 10 6 23 13 SW 1019,4 42 0,0
20.09.2019 20:00:00 24,2 16,2 23,6 16 9 27 15 SW 1018,9 34 0,0
20.09.2019 19:00:00 25,6 15,9 26,6 18 10 31 17 SW 1018,6 32 0,0
20.09.2019 18:00:00 28,4 14,2 29,5 9 5 23 12 SSW 1018,3 44 0,0
20.09.2019 17:00:00 28,2 13,7 31,0 11 6 22 12 SSW 1018,7 30 0,0
20.09.2019 16:00:00 28,5 14,3 36,0 14 7 26 14 SSW 1019,3 20 0,0
20.09.2019 15:00:00 28,1 14,7 36,3 13 7 27 14 SSW 1020,2 60 0,0
20.09.2019 14:00:00 26,6 13,7 34,5 9 5 18 10 SSE 1020,7 20 0,0
20.09.2019 13:00:00 26,0 13,1 32,2 8 5 18 10 WSW 1021,4 37 0,0
20.09.2019 12:00:00 23,6 10,3 24,4 6 3 11 6 WNW 1021,7 31 0,0
20.09.2019 11:00:00 20,7 8,3 22,2 5 3 10 6 NNW 1022,2 55 0,0
20.09.2019 10:00:00 19,2 7,3 17,8 4 2 10 5 NW 1022,1 50 0,0
20.09.2019 09:00:00 16,6 6,7 14,4 6 3 10 5 WNW 1021,5 58 0,0
20.09.2019 08:00:00 15,0 6,0 11,0 4 2 8 5 NW 1021,1 51 0,0
20.09.2019 07:00:00 14,8 5,8 10,5 5 3 10 5 NW 1020,8 60 0,0
20.09.2019 06:00:00 15,0 5,5 10,5 0 0 10 6 N 1020,6 60 0,0
20.09.2019 05:00:00 16,6 5,5 14,1 8 4 21 11 NW 1020,6 60 0,0
20.09.2019 04:00:00 17,6 5,5 15,3 11 6 16 9 N 1020,4 60 0,0
20.09.2019 03:00:00 17,7 5,3 15,5 10 5 17 9 N 1020,4 60 0,0
20.09.2019 02:00:00 18,2 5,1 16,8 11 6 28 15 NNW 1020,5 60 0,0
20.09.2019 01:00:00 19,2 4,5 18,0 15 8 32 17 N 1020,1 60 0,0
20.09.2019 00:00:00 20,1 5,7 19,0 22 12 41 22 N 1020,0 60 0,0
19.09.2019 23:00:00 20,7 6,6 19,4 26 14 38 20 N 1019,5 60 0,0
19.09.2019 22:00:00 20,9 7,8 19,7 23 12 43 23 N 1018,7 60 0,0
19.09.2019 21:00:00 21,4 8,0 20,4 29 15 48 26 N 1017,9 60 0,0
19.09.2019 20:00:00 22,2 8,3 21,1 28 15 46 25 N 1017,1 59 0,0
19.09.2019 19:00:00 23,9 8,7 24,9 31 17 46 25 N 1016,7 17 0,0
19.09.2019 18:00:00 25,7 9,1 29,9 28 15 42 23 N 1016,2 15 0,0
19.09.2019 17:00:00 26,5 9,4 27,5 26 14 43 23 N 1016,1 18 0,0
19.09.2019 16:00:00 25,9 9,3 - 28 15 42 23 N 1016,3 17 0,0
19.09.2019 15:00:00 26,6 9,4 34,6 25 14 35 19 N 1016,5 23 0,0
19.09.2019 14:00:00 26,3 9,2 33,4 21 11 35 19 N 1016,8 25 0,0
19.09.2019 13:00:00 24,6 8,5 29,6 21 11 40 22 N 1017,3 20 0,0
19.09.2019 12:00:00 22,7 8,4 24,6 27 15 46 25 N 1017,8 20 0,0
19.09.2019 11:00:00 20,3 7,3 18,3 33 18 49 27 N 1017,9 20 0,0
19.09.2019 10:00:00 17,0 7,1 17,4 30 16 54 29 N 1017,7 45 0,0
19.09.2019 09:00:00 16,7 7,1 16,7 23 13 54 29 N 1017,2 42 0,0
19.09.2019 08:00:00 16,9 7,0 16,4 29 15 55 30 N 1016,7 30 0,0
19.09.2019 07:00:00 17,0 7,3 16,2 35 19 56 31 NNW 1016,3 59 0,0
19.09.2019 06:00:00 17,2 7,0 16,4 27 15 53 29 NNW 1016,3 60 0,0
19.09.2019 05:00:00 17,9 7,0 16,8 26 14 50 27 N 1016,3 60 0,0
19.09.2019 04:00:00 18,3 7,4 17,4 25 13 47 25 NNW 1016,9 59 0,0
19.09.2019 03:00:00 19,0 8,3 18,1 30 16 59 32 N 1016,5 57 0,0
19.09.2019 02:00:00 19,9 8,6 19,1 37 20 58 32 N 1016,3 58 0,0
19.09.2019 01:00:00 20,7 9,3 19,8 33 18 57 31 N 1016,5 57 0,0
19.09.2019 00:00:00 21,2 10,4 19,8 22 12 41 22 NNW 1017,3 52 0,0
18.09.2019 23:00:00 21,6 10,7 20,1 14 7 42 23 NW 1017,5 52 0,0
18.09.2019 22:00:00 22,1 11,5 20,9 17 9 45 24 NW 1017,0 52 0,0
18.09.2019 21:00:00 22,9 11,6 22,1 21 12 44 24 NNW 1015,9 55 0,0
18.09.2019 20:00:00 24,1 11,4 23,2 24 13 47 26 N 1014,9 60 0,0
18.09.2019 19:00:00 25,5 11,6 24,8 18 10 53 29 NNW 1014,4 49 0,0
18.09.2019 18:00:00 28,7 11,7 32,5 27 15 46 25 NNW 1013,8 20 0,0
18.09.2019 17:00:00 30,1 11,1 33,7 22 12 40 21 NNW 1013,5 29 0,0
18.09.2019 16:00:00 30,2 11,7 37,9 23 13 34 18 N 1013,9 40 0,0
18.09.2019 15:00:00 30,6 11,5 36,7 16 9 30 16 N 1014,3 46 0,0
18.09.2019 14:00:00 28,8 11,4 34,6 20 11 31 17 N 1014,8 54 0,0
18.09.2019 13:00:00 27,3 12,1 32,8 16 9 29 16 N 1015,1 20 0,0
18.09.2019 12:00:00 25,9 12,4 28,4 19 10 41 22 N 1015,2 18 0,0
18.09.2019 11:00:00 23,5 11,9 26,2 26 14 41 22 N 1015,4 36 0,0

tt = Température de l'air
td = dewpoint
tt 5cm = Température de l'air 5cm
ff = Vitesse du vent
fx = gusts
dd = Direction du vent
ppp = reduced air pressure
vv = visibility
rr = Quantités de précipitations

stations d'obs. à proximité